Other Public Products
Issued by NWS Charleston, SC

Current Version | Previous Version | Text Only | Print | Product List | Glossary Off
Versions: 1 2 3 4 5 6 7 8 9 10 11 12 13 14 15 16 17 18 19 20 21 22 23 24 25 26 27 28 29 30 31 32 33 34 35 36 37 38 39 40 41 42 43 44 45 46 47 48 49 50
794 FPUS82 KCHS 200912 OPUCHS TEST...KCHS/KSAV Gateway Observations...TEST National Weather Service Charleston SC 400 AM EST TUE FEB 20 2018 NOTE: "fair" indicates few or no clouds below 12,000 feet with no significant weather and/or obstructions to visibility. SCZ050-WAZ558-NCZ071-TXZ119-213-PAZ071-DCZ001-FLZ074-172-MI076- NYZ176-178-MAZ016-IL014-TNZ027-NJZ106-GAZ044-MD014-201000- ...Gateway Observations for Charleston International... CITY SKY/WX TMP DP RH WIND PRES REMARKS Chas Airport FOG 60 60 100 CALM 30.38S VSB 1/4 Seattle CLOUDY 29 17 61 SE10 30.20S WCI 20 Charlotte FOG 54 54 100 N3 30.40S VSB 1/2 Dallas DFW CLOUDY 74 66 76 S20G33 29.82R Dallas Love CLOUDY 72 66 81 S20G28 29.85R Philladelphia FOG 48 48 100 SW7 30.32F VSB 1/4 Wash National CLOUDY 53 52 96 SW13 30.33S Baltimore CLOUDY 50 50 100 SW8 30.31S FOG Miami MOCLDY 76 70 82 E18 30.23S Detroit HVY RAIN 54 54 100 CALM 29.97F VSB 1/4 Newark FOG 48 47 96 SW8 30.29F VSB 1/4 Laguardia CLOUDY 51 48 89 SW10G18 30.28F J F K FOG 46 46 100 SW6 30.30F VSB 1/4 Boston Logan CLOUDY 53 51 93 SW14 30.23S Ft. Lauderdale MOCLDY 76 72 87 E20 30.23S Chicago O`Hare RAIN 60 58 92 SW14 29.81S Chicago Midway LGT RAIN 60 60 100 S12 29.82F FOG Houston Bush MOCLDY 71 67 87 S18G26 29.96F Houston Hobby CLOUDY 70 69 97 S17G26 29.96F Nashville FAIR 67 57 70 S14 30.17S Atlanta FAIR 58 58 100 E7 30.33F $$ GAZ044-118-TXZ119-213-NCZ071-DCZ001-MDZ014-506-PAZ021-071-NJZ106- NYZ176-178-MAZ106-OHZ011-021-055-MIZ076-KYZ091-ILZ014-INZ047- MNZ060-ONZ431-201000- ...Gateway Observations for Savannah International... CITY SKY/WX TMP DP RH WIND PRES REMARKS Savannah Arpt FOG 59 59 100 CALM 30.36S VSB 1/4 Atlanta FAIR 58 58 100 E7 30.33F Charlotte FOG 54 54 100 N3 30.40S VSB 1/2 Dallas DFW CLOUDY 74 66 76 S20G33 29.82R Houston Bush MOCLDY 71 67 87 S18G26 29.96F Wash National CLOUDY 53 52 96 SW13 30.33S Wash Dulles CLOUDY 50 50 100 S15 30.30F Baltimore CLOUDY 50 50 100 SW8 30.31S FOG Philadelphia FOG 48 48 100 SW7 30.32F VSB 1/4 Newark FOG 48 47 96 SW8 30.29F VSB 1/4 Laguardia CLOUDY 51 48 89 SW10G18 30.28F J F K FOG 46 46 100 SW6 30.30F VSB 1/4 Boston CLOUDY 53 51 93 SW14 30.23S Pittsburg MOCLDY 62 52 69 SW10 30.15R Akron MOCLDY 61 52 72 SW20 30.10S Cleveland CLOUDY 63 54 72 SW17G24 30.07S Cincinnati CLOUDY 60 57 89 S12 30.10S Columbus CLOUDY 60 55 83 S12 30.12R Detroit HVY RAIN 54 54 100 CALM 29.97F VSB 1/4 Chicago O`Hare RAIN 60 58 92 SW14 29.81S Minneapolis LGT SNOW 20 19 96 NE6 29.83F FOG WCI 12 Indianapolis MOCLDY 66 57 72 S23G29 29.99S Toronto Canada FOG 37 37 100 CALM 30.00S VSB 1/8 $$

USA.gov is the U.S. government's official web portal to all federal, state and local government web resources and services.